CW9414 Weather Reports


time (UTC)temp
F
wind
direction
speed
knots
gust
knots
rain 1hr
in
rain 24hr
in
rain mn
in
humidity
%
barometer
mb
20260505111407 71 157 0.0 4.3 0.00 0.00 0.00 88 1004.3
20260505110407 71 159 0.0 3.5 0.00 0.00 0.00 88 1004.3
20260505101407 71 171 0.0 4.3 0.00 0.00 0.00 87 1004.7
20260505100408 71 171 0.9 2.6 0.00 0.00 0.00 87 1004.7
20260505095407 71 171 0.0 2.6 0.00 0.00 0.00 87 1004.6
20260505094407 71 171 0.0 1.7 0.00 0.00 0.00 86 1004.6
20260505093410 71 171 0.9 4.3 0.00 0.00 0.00 86 1004.6
20260505092407 71 171 0.0 1.7 0.00 0.00 0.00 86 1004.8
20260505091407 71 171 0.0 2.6 0.00 0.00 0.00 86 1005.0
20260505090407 71 171 1.7 2.6 0.00 0.00 0.00 86 1005.0
20260505085407 71 171 0.0 1.7 0.00 0.00 0.00 85 1005.0
20260505084407 71 171 0.0 2.6 0.00 0.00 0.00 85 1005.1
20260505083407 71 171 0.0 2.6 0.00 0.00 0.00 85 1005.1
20260505082410 71 171 0.0 1.7 0.00 0.00 0.00 85 1005.2
20260505081410 71 171 0.0 4.3 0.00 0.00 0.00 84 1005.3
20260505080410 71 172 0.0 2.6 0.00 0.00 0.00 84 1005.3
20260505075407 71 172 0.0 2.6 0.00 0.00 0.00 84 1005.4
20260505074410 71 172 0.0 2.6 0.00 0.00 0.00 84 1005.4
20260505073407 71 171 0.0 3.5 0.00 0.00 0.00 83 1005.4
20260505072407 71 150 0.0 7.8 0.00 0.00 0.00 83 1005.5
20260505071407 71 150 0.0 3.5 0.00 0.00 0.00 82 1005.6
20260505070407 71 151 1.7 2.6 0.00 0.00 0.00 82 1005.6
20260505065407 71 151 1.7 4.3 0.00 0.00 0.00 82 1006.0
20260505064407 71 151 0.9 5.2 0.00 0.00 0.00 82 1006.1
20260505063407 71 151 1.7 3.5 0.00 0.00 0.00 82 1006.1
20260505062407 71 151 0.9 2.6 0.00 0.00 0.00 81 1006.2
20260505061407 71 151 0.0 3.5 0.00 0.00 0.00 81 1006.4
20260505060407 71 151 0.9 5.2 0.00 0.00 0.00 80 1006.4
20260505055406 71 152 0.9 4.3 0.00 0.00 0.00 80 1006.2
20260505054406 71 151 0.9 5.2 0.00 0.00 0.00 79 1006.6
20260505053407 71 151 0.9 3.5 0.00 0.00 0.00 79 1006.6
20260505052406 71 151 0.0 2.6 0.00 0.00 0.00 79 1006.9
20260505051407 71 151 0.0 3.5 0.00 0.00 0.00 79 1006.9
20260505050406 71 151 1.7 4.3 0.00 0.00 0.00 78 1006.9
20260505041410 72 154 1.7 2.6 0.00 0.00 0.00 76 1007.1
20260505040406 72 154 0.0 5.2 0.00 0.00 0.00 75 1007.1
20260505035407 73 154 0.9 4.3 0.00 0.00 0.00 75 1007.1
20260505034406 73 150 0.9 5.2 0.00 0.00 0.00 75 1007.1
20260505033406 73 153 0.0 3.5 0.00 0.00 0.00 74 1007.1
20260505032409 73 153 0.9 4.3 0.00 0.00 0.00 74 1007.2
20260505031407 73 149 0.9 5.2 0.00 0.00 0.00 73 1007.1
20260505030406 73 161 1.7 7.8 0.00 0.00 0.00 72 1007.1
20260505025407 74 138 0.0 6.1 0.00 0.00 0.00 72 1007.2
20260505024407 74 136 2.6 7.8 0.00 0.00 0.00 72 1007.2
20260505023406 74 136 3.5 3.5 0.00 0.00 0.00 71 1007.2
20260505022406 74 134 0.0 6.1 0.00 0.00 0.00 71 1006.9
20260505021406 75 188 0.9 3.5 0.00 0.00 0.00 70 1006.7
20260505020406 75 150 0.0 6.1 0.00 0.00 0.00 69 1006.7
20260505015407 75 148 1.7 6.1 0.00 0.00 0.00 69 1006.8
20260505014409 75 148 2.6 3.5 0.00 0.00 0.00 69 1006.6
20260505013406 75 153 0.9 4.3 0.00 0.00 0.00 68 1006.6
20260505012406 76 148 0.9 7.8 0.00 0.00 0.00 67 1006.6
20260505011406 76 144 1.7 8.7 0.00 0.00 0.00 66 1006.6
20260505010409 77 142 2.6 4.3 0.00 0.00 0.00 65 1006.6
20260505005406 77 143 9.6 9.6 0.00 0.00 0.00 65 1006.6
20260505004406 77 157 1.7 5.2 0.00 0.00 0.00 64 1006.5
20260505003406 78 163 1.7 5.2 0.00 0.00 0.00 64 1006.5
20260505002406 78 148 0.9 6.1 0.00 0.00 0.00 64 1006.3
20260505001407 78 143 3.5 7.0 0.00 0.00 0.00 63 1006.5
20260505000407 79 144 2.6 4.3 0.00 0.00 0.00 62 1006.5
20260504235407 79 149 0.9 6.1 0.00 0.00 0.00 62 1006.6
20260504234406 79 157 2.6 7.8 0.00 0.00 0.00 62 1006.7
20260504233409 79 173 1.7 6.1 0.00 0.00 0.00 61 1006.7
20260504232407 79 155 3.5 7.8 0.00 0.00 0.00 60 1007.0
20260504231406 79 152 3.5 5.2 0.00 0.00 0.00 59 1007.2
20260504230406 80 138 2.6 6.1 0.00 0.00 0.00 58 1007.2
20260504225406 80 143 4.3 7.8 0.00 0.00 0.00 57 1007.2
20260504224407 80 207 2.6 7.0 0.00 0.00 0.00 57 1007.2
20260504223406 80 149 0.9 5.2 0.00 0.00 0.00 57 1007.2
20260504222406 80 148 0.9 6.1 0.00 0.00 0.00 56 1007.3
20260504221406 80 152 3.5 8.7 0.00 0.00 0.00 56 1007.7
20260504220406 80 165 1.7 7.8 0.00 0.00 0.00 55 1007.7
20260504215407 81 219 1.7 4.3 0.00 0.00 0.00 55 1007.7
20260504214410 81 207 2.6 6.1 0.00 0.00 0.00 54 1007.8
20260504213406 82 159 1.7 5.2 0.00 0.00 0.00 52 1007.8
20260504212406 82 149 7.8 7.8 0.00 0.00 0.00 52 1008.2
20260504211409 83 144 1.7 5.2 0.00 0.00 0.00 51 1008.3
20260504210407 83 180 3.5 5.2 0.00 0.00 0.00 50 1008.3
20260504205407 83 189 2.6 6.1 0.00 0.00 0.00 51 1008.5
20260504204409 83 165 1.7 5.2 0.00 0.00 0.00 49 1008.4
20260504203406 83 158 5.2 7.8 0.00 0.00 0.00 49 1008.4
20260504202406 83 132 3.5 8.7 0.00 0.00 0.00 49 1008.8
20260504201406 83 165 3.5 5.2 0.00 0.00 0.00 49 1009.2
20260504200406 83 132 0.9 7.8 0.00 0.00 0.00 49 1009.2
20260504195406 83 165 1.7 5.2 0.00 0.00 0.00 49 1009.3
20260504194406 84 190 1.7 4.3 0.00 0.00 0.00 49 1009.4
20260504193406 84 134 0.9 4.3 0.00 0.00 0.00 49 1009.4
20260504192406 84 167 0.9 4.3 0.00 0.00 0.00 49 1009.7
20260504191406 83 199 1.7 6.1 0.00 0.00 0.00 48 1009.8
20260504190406 84 188 1.7 4.3 0.00 0.00 0.00 48 1009.8
20260504185406 84 196 5.2 6.1 0.00 0.00 0.00 48 1009.9
20260504184406 83 191 4.3 6.1 0.00 0.00 0.00 50 1010.1
20260504183406 82 178 2.6 6.1 0.00 0.00 0.00 50 1010.1
20260504182406 82 226 1.7 6.1 0.00 0.00 0.00 50 1010.3
20260504181409 82 140 1.7 4.3 0.00 0.00 0.00 50 1010.3
20260504180406 82 182 0.9 6.1 0.00 0.00 0.00 50 1010.3
20260504175407 82 147 0.9 7.8 0.00 0.00 0.00 51 1010.9
20260504174406 81 205 1.7 6.1 0.00 0.00 0.00 51 1010.9
20260504173409 81 142 1.7 4.3 0.00 0.00 0.00 54 1010.8
20260504172406 80 159 0.9 8.7 0.00 0.00 0.00 54 1011.1
20260504171406 80 185 2.6 5.2 0.00 0.00 0.00 53 1011.4
20260504170407 80 205 2.6 6.1 0.00 0.00 0.00 53 1011.4
20260504160406 77 134 4.3 7.8 0.00 0.00 0.00 60 1011.9
20260504150406 72 192 2.6 7.8 0.00 0.00 0.00 65 1011.9
20260504140409 67 151 1.7 2.6 0.00 0.00 0.00 73 1012.0
20260504130406 60 151 0.0 0.0 0.00 0.00 0.00 80 1011.8